Laramie, WY

6:31 AM MDT on September 26, 2016 (GMT -0600)
Laramie Regional

Weather History for KLAR - March, 2014

Change the Weather History Date:

Tuesday, March 11, 2014

  Actual Average Record
Temperature  
Mean Temperature 22 °F 30 °F  
Max Temperature 36 °F 42 °F 64 °F (1989)
Min Temperature 7 °F 18 °F -16 °F (1948)
Degree Days  
Heating Degree Days 43 35  
Month to date heating degree days 336 402  
Since 1 July heating degree days 6338 6578  
Cooling Degree Days 0 0  
Month to date cooling degree days 0 0  
Year to date cooling degree days 0 0  
Moisture  
Dew Point 18 °F    
Average Humidity 74    
Maximum Humidity 88    
Minimum Humidity 59    
Precipitation  
Precipitation 0.01 in 0.02 in 0.63 in (1952)
Month to date precipitation 0.13 0.18  
Year to date precipitation 0.97 0.79  
Sea Level Pressure  
Sea Level Pressure 30.04 in    
Wind  
Wind Speed 13 mph (NNW)    
Max Wind Speed 31 mph    
Max Gust Speed 40 mph    
Visibility 5 miles    
Events Fog , Snow    
T = Trace of Precipitation, MM = Missing Value Source: NWS Daily Summary

Daily Weather History Graph

Daily Weather History Graph

Search for Another Location

Airport or City:

Trip Planner

Search our weather history database for the weather conditions in past years. The results will help you decide how hot, cold, wet, or windy it might be!

Date:

Astronomy

Mar. 11, 2014 Rise Set
Actual Time 7:20 AM MDT 7:04 PM MDT
Civil Twilight 6:53 AM MDT 7:32 PM MDT
Nautical Twilight 6:21 AM MDT 8:04 PM MDT
Astronomical Twilight 5:49 AM MDT 8:36 PM MDT
Moon 2:41 PM MDT (3/11) 4:18 AM MDT (3/11)
Length of Visible Light 12h 39m
Length of Day
11h 44m
Waxing Gibbous, 78% of the Moon is Illuminated
Mar 11
Waxing Gibbous
Mar 16
Full
Mar 23
Last Quarter
Mar 30
New
Apr 7
First Quarter

Hourly Weather History & Observations

Time (MDT) Temp. Windchill Dew Point Humidity Pressure Visibility Wind Dir Wind Speed Gust Speed Precip Events Conditions
12:53 AM 36.0 °F 25.3 °F 23.0 °F 59% 29.60 in 10.0 mi WNW 19.6 mph - N/A   Mostly Cloudy
1:53 AM 33.1 °F 25.5 °F 26.1 °F 75% 29.61 in 10.0 mi NW 9.2 mph - N/A   Overcast
2:53 AM 32.0 °F 25.6 °F 27.0 °F 82% 29.61 in 10.0 mi NNW 6.9 mph - N/A   Overcast
3:53 AM 32.0 °F 23.0 °F 24.1 °F 73% 29.58 in 10.0 mi WSW 11.5 mph - N/A   Overcast
4:53 AM 30.9 °F 22.8 °F 24.1 °F 76% 29.60 in 10.0 mi WSW 9.2 mph - N/A   Overcast
5:53 AM 30.0 °F 23.2 °F 26.1 °F 85% 29.64 in 3.0 mi North 6.9 mph - 0.00 in Snow Light Snow
6:53 AM 28.9 °F 23.9 °F 24.1 °F 82% 29.69 in 10.0 mi SW 4.6 mph - 0.00 in   Overcast
7:53 AM 28.9 °F 21.9 °F 23.0 °F 78% 29.73 in 10.0 mi North 6.9 mph - N/A   Mostly Cloudy
8:53 AM 26.1 °F 10.1 °F 19.9 °F 78% 29.78 in 8.0 mi NNW 27.6 mph 38.0 mph 0.00 in   Mostly Cloudy
9:03 AM 25.0 °F 8.4 °F 21.0 °F 85% 29.85 in 3.0 mi North 28.8 mph 38.0 mph 0.00 in Snow Light Snow
9:18 AM 25.0 °F 8.9 °F 19.0 °F 78% 29.87 in 9.0 mi NNW 26.5 mph 38.0 mph 0.00 in   Mostly Cloudy
9:25 AM 26.1 °F 11.0 °F 19.9 °F 78% 29.88 in 10.0 mi North 24.2 mph 36.8 mph 0.00 in   Overcast
9:32 AM 26.1 °F 11.0 °F 19.9 °F 78% 29.89 in 10.0 mi NNW 24.2 mph 33.4 mph 0.00 in   Overcast
9:53 AM 26.1 °F 11.6 °F 19.9 °F 78% 29.85 in 10.0 mi NNW 21.9 mph 28.8 mph 0.00 in   Overcast
10:04 AM 25.0 °F 10.6 °F 19.0 °F 78% 29.92 in 1.5 mi NNW 20.7 mph 28.8 mph 0.00 in Snow Light Snow
10:08 AM 25.0 °F 10.2 °F 19.9 °F 81% 29.93 in 0.5 mi NNW 21.9 mph 28.8 mph 0.00 in Snow Snow
10:30 AM 23.0 °F 7.2 °F 21.0 °F 92% 29.95 in 0.2 mi North 23.0 mph 31.1 mph 0.00 in Fog , Snow Heavy Snow
10:37 AM 24.1 °F 8.7 °F 21.0 °F 88% 29.96 in 0.2 mi North 23.0 mph - 0.00 in Fog , Snow Heavy Snow
10:53 AM 23.0 °F 8.3 °F 19.0 °F 85% 29.97 in 0.2 mi NNE 19.6 mph 32.2 mph 0.00 in Fog , Snow Light Snow
11:01 AM 24.1 °F 10.1 °F 19.0 °F 81% 29.99 in 0.5 mi NNE 18.4 mph - 0.00 in Snow Snow
11:20 AM 24.1 °F 11.5 °F 19.0 °F 81% 30.01 in 0.8 mi North 15.0 mph 25.3 mph 0.00 in Snow Light Snow
11:34 AM 24.1 °F 10.1 °F 19.0 °F 81% 30.02 in 0.5 mi North 18.4 mph - 0.00 in Snow Snow
11:53 AM 24.1 °F 10.6 °F 19.9 °F 84% 30.03 in 0.2 mi North 17.3 mph - 0.00 in Fog , Snow Snow
12:16 PM 21.9 °F 7.8 °F 19.0 °F 89% 30.06 in 0.2 mi North 17.3 mph 34.5 mph 0.01 in Fog , Snow Heavy Snow
12:45 PM 23.0 °F 8.0 °F 19.0 °F 85% 30.07 in 0.5 mi North 20.7 mph 31.1 mph 0.01 in Fog , Snow Light Snow
12:53 PM 23.0 °F 7.6 °F 19.9 °F 88% 30.09 in 0.5 mi North 21.9 mph 29.9 mph 0.01 in Fog , Snow Light Snow
1:24 PM 24.1 °F 10.1 °F 19.9 °F 84% 30.10 in 0.2 mi North 18.4 mph - 0.00 in Fog , Snow Heavy Snow
1:33 PM 23.0 °F 6.9 °F 19.0 °F 85% 30.10 in 0.8 mi North 24.2 mph 32.2 mph 0.00 in Snow Light Snow
1:53 PM 24.1 °F 9.0 °F 19.0 °F 81% 30.14 in 1.0 mi North 21.9 mph 29.9 mph 0.00 in Snow Light Snow
2:11 PM 24.1 °F 10.6 °F 19.9 °F 84% 30.12 in 0.8 mi North 17.3 mph - 0.00 in Snow Light Snow
2:19 PM 23.0 °F 7.2 °F 19.0 °F 85% 30.12 in 0.5 mi North 23.0 mph 29.9 mph 0.00 in Fog , Snow Snow
2:53 PM 24.1 °F 11.0 °F 18.0 °F 77% 30.19 in 1.0 mi North 16.1 mph 31.1 mph 0.00 in Snow Light Snow
3:02 PM 24.1 °F 10.6 °F 19.0 °F 81% 30.15 in 2.5 mi North 17.3 mph - 0.00 in Snow Light Snow
3:07 PM 24.1 °F 9.0 °F 19.0 °F 81% 30.15 in 0.8 mi North 21.9 mph 29.9 mph 0.00 in Snow Light Snow
3:14 PM 23.0 °F 7.6 °F 19.0 °F 85% 30.16 in 0.2 mi North 21.9 mph 29.9 mph 0.00 in Fog , Snow Snow
3:28 PM 24.1 °F 9.0 °F 18.0 °F 77% 30.16 in 1.0 mi North 21.9 mph 29.9 mph 0.00 in Snow Light Snow
3:38 PM 24.1 °F 8.7 °F 19.0 °F 81% 30.16 in 2.0 mi North 23.0 mph 26.5 mph 0.00 in Snow Light Snow
3:43 PM 23.0 °F 8.7 °F 19.0 °F 85% 30.17 in 0.8 mi North 18.4 mph 27.6 mph 0.00 in Snow Light Snow
3:53 PM 23.0 °F 8.0 °F 19.0 °F 85% 30.22 in 1.0 mi North 20.7 mph - 0.00 in Snow Light Snow
4:02 PM 21.9 °F 7.8 °F 17.1 °F 82% 30.18 in 3.0 mi North 17.3 mph - 0.00 in Snow Light Snow
4:30 PM 21.9 °F 7.8 °F 17.1 °F 82% 30.19 in 9.0 mi North 17.3 mph - 0.00 in   Mostly Cloudy
4:48 PM 23.0 °F 9.2 °F 15.8 °F 74% 30.20 in 7.0 mi North 17.3 mph - 0.00 in Snow Light Snow
4:53 PM 23.0 °F 11.1 °F 16.0 °F 74% 30.26 in 9.0 mi North 12.7 mph - 0.00 in   Mostly Cloudy
5:53 PM 24.1 °F 13.7 °F 15.1 °F 69% 30.27 in 10.0 mi North 10.4 mph - N/A   Mostly Cloudy
6:09 PM 23.0 °F 10.1 °F 16.0 °F 74% 30.22 in 10.0 mi NNW 15.0 mph - 0.00 in   Overcast
6:30 PM 21.0 °F 8.6 °F 15.1 °F 78% 30.23 in 10.0 mi NW 12.7 mph - 0.00 in   Mostly Cloudy
6:53 PM 19.9 °F 6.7 °F 12.9 °F 74% 30.32 in 10.0 mi NW 13.8 mph - 0.00 in   Scattered Clouds
7:53 PM 14.0 °F -0.2 °F 9.0 °F 80% 30.38 in 10.0 mi NW 12.7 mph - N/A   Clear
8:53 PM 12.9 °F -0.9 °F 7.0 °F 77% 30.41 in 10.0 mi WNW 11.5 mph - N/A   Clear
9:53 PM 10.0 °F -3.7 °F 3.9 °F 76% 30.45 in 10.0 mi NW 10.4 mph - N/A   Scattered Clouds
10:53 PM 12.9 °F 5.2 °F 6.1 °F 74% 30.45 in 10.0 mi SSE 4.6 mph - N/A   Overcast
11:53 PM 9.0 °F -2.2 °F 3.0 °F 77% 30.45 in 10.0 mi SSW 6.9 mph - N/A   Partly Cloudy